When you browse on this site, cookies collect data to enhance your experience and personalize the content and advertising you see.
Visit our Privacy Policy to learn more. By continuing to use the site, you agree to this use of cookies and data.
  • en France
  • Liste des pays
  • À 7 jours
  • Température de l'eau
  • Carte satellitaire
  • Carte météo
  • Widgets météo
  • user-avatar
    Se connecter

    Météo par heure à Sariwon

    Ce jour, 18 Novembre, Dimanche

    Heure Température Précipitation Vent Pression Humidité
    00:00 +3°C° 0 mm 1 m/s 765 mmHg 45%
    01:00 +3°C° 0 mm 1 m/s 765 mmHg 44%
    02:00 +3°C° 0 mm 1 m/s 765 mmHg 45%
    03:00 +3°C° 0 mm 1 m/s 765 mmHg 46%
    04:00 +3°C° 0 mm 1 m/s 765 mmHg 47%
    05:00 +3°C° 0 mm 1 m/s 765 mmHg 48%
    06:00 +4°C° 0 mm 1 m/s 765 mmHg 48%
    07:00 +5°C° 0 mm 1 m/s 765 mmHg 48%
    08:00 +5°C° 0 mm 1 m/s 765 mmHg 48%
    09:00 +7°C° 0 mm 1 m/s 764 mmHg 48%
    10:00 +8°C° 0 mm 1 m/s 764 mmHg 47%
    11:00 +10°C° 0 mm 1 m/s 764 mmHg 46%
    12:00 +9°C° 0 mm 2 m/s 764 mmHg 46%
    13:00 +10°C° 0 mm 2 m/s 763 mmHg 47%
    14:00 +10°C° 0 mm 3 m/s 763 mmHg 47%
    15:00 +10°C° 0 mm 2 m/s 763 mmHg 51%
    16:00 +9°C° 0 mm 2 m/s 763 mmHg 56%
    17:00 +9°C° 0 mm 1 m/s 763 mmHg 60%
    18:00 +8°C° 0 mm 1 m/s 763 mmHg 61%
    19:00 +8°C° 0 mm 1 m/s 763 mmHg 63%
    20:00 +8°C° 0 mm 1 m/s 763 mmHg 64%
    21:00 +8°C° 0 mm 1 m/s 763 mmHg 65%
    22:00 +7°C° 0 mm 1 m/s 763 mmHg 67%
    23:00 +7°C° 0 mm 1 m/s 763 mmHg 68%

    Demain, 19 Novembre, Lundi

    Heure Température Précipitation Vent Pression Humidité
    00:00 +7°C° 0.1 mm 1 m/s 763 mmHg 70%
    01:00 +7°C° 0.1 mm 1 m/s 763 mmHg 73%
    02:00 +7°C° 0.1 mm 1 m/s 763 mmHg 75%
    03:00 +6°C° 0 mm 1 m/s 764 mmHg 77%
    04:00 +6°C° 0 mm 1 m/s 764 mmHg 78%
    05:00 +5°C° 0 mm 1 m/s 764 mmHg 79%
    06:00 +6°C° 0 mm 1 m/s 764 mmHg 76%
    07:00 +6°C° 0 mm 1 m/s 764 mmHg 72%
    08:00 +7°C° 0 mm 1 m/s 765 mmHg 69%
    09:00 +7°C° 0 mm 2 m/s 765 mmHg 57%
    10:00 +8°C° 0 mm 2 m/s 765 mmHg 46%
    11:00 +9°C° 0 mm 3 m/s 765 mmHg 34%
    12:00 +9°C° 0 mm 3 m/s 765 mmHg 34%
    13:00 +8°C° 0 mm 4 m/s 765 mmHg 34%
    14:00 +8°C° 0 mm 4 m/s 765 mmHg 33%
    15:00 +7°C° 0 mm 4 m/s 765 mmHg 38%
    16:00 +5°C° 0 mm 3 m/s 765 mmHg 44%
    17:00 +5°C° 0 mm 2 m/s 765 mmHg 49%
    18:00 +5°C° 0 mm 2 m/s 766 mmHg 51%
    19:00 +5°C° 0 mm 1 m/s 766 mmHg 54%
    20:00 +5°C° 0 mm 1 m/s 766 mmHg 56%
    21:00 +4°C° 0 mm 1 m/s 766 mmHg 57%
    22:00 +4°C° 0 mm 1 m/s 767 mmHg 58%
    23:00 +3°C° 0 mm 0 m/s 767 mmHg 59%

    Après-demain, 20 Novembre, Mardi

    Heure Température Précipitation Vent Pression Humidité
    00:00 +4°C° 0 mm 1 m/s 767 mmHg 60%
    01:00 +3°C° 0 mm 1 m/s 767 mmHg 60%
    02:00 +3°C° 0 mm 1 m/s 766 mmHg 60%
    03:00 +3°C° 0 mm 1 m/s 766 mmHg 60%
    04:00 +2°C° 0 mm 2 m/s 766 mmHg 60%
    05:00 +2°C° 0 mm 2 m/s 766 mmHg 60%
    06:00 +3°C° 0 mm 2 m/s 766 mmHg 59%
    07:00 +2°C° 0 mm 3 m/s 766 mmHg 58%
    08:00 +3°C° 0 mm 3 m/s 766 mmHg 57%
    09:00 +5°C° 0 mm 4 m/s 766 mmHg 54%
    10:00 +7°C° 0 mm 4 m/s 766 mmHg 52%
    11:00 +10°C° 0 mm 5 m/s 766 mmHg 50%
    12:00 +10°C° 0.1 mm 6 m/s 765 mmHg 51%
    13:00 +11°C° 0.1 mm 6 m/s 765 mmHg 53%
    14:00 +11°C° 0.1 mm 7 m/s 764 mmHg 54%
    15:00 +10°C° 0.1 mm 6 m/s 764 mmHg 60%
    16:00 +9°C° 0.1 mm 5 m/s 764 mmHg 65%
    17:00 +8°C° 0.1 mm 4 m/s 764 mmHg 71%
    18:00 +8°C° 0.2 mm 4 m/s 764 mmHg 75%
    19:00 +8°C° 0.2 mm 3 m/s 765 mmHg 79%
    20:00 +8°C° 0.2 mm 3 m/s 765 mmHg 83%
    21:00 +7°C° 0 mm 3 m/s 765 mmHg 83%
    22:00 +5°C° 0 mm 3 m/s 765 mmHg 83%
    23:00 +5°C° 0 mm 3 m/s 765 mmHg 82%

    21 Novembre, Mercredi

    Heure Température Précipitation Vent Pression Humidité
    00:00 +4°C° 0 mm 3 m/s 766 mmHg 80%
    01:00 +4°C° 0 mm 3 m/s 766 mmHg 78%
    02:00 +3°C° 0 mm 3 m/s 766 mmHg 76%
    03:00 +3°C° 0 mm 3 m/s 766 mmHg 75%
    04:00 +2°C° 0 mm 3 m/s 766 mmHg 74%
    05:00 +2°C° 0 mm 3 m/s 766 mmHg 72%
    06:00 +2°C° 0 mm 3 m/s 766 mmHg 69%
    07:00 +2°C° 0 mm 3 m/s 766 mmHg 65%
    08:00 +2°C° 0 mm 3 m/s 767 mmHg 62%
    09:00 +2°C° 0 mm 3 m/s 767 mmHg 56%
    10:00 +3°C° 0 mm 3 m/s 767 mmHg 50%
    11:00 +4°C° 0 mm 3 m/s 767 mmHg 43%
    12:00 +4°C° 0 mm 3 m/s 766 mmHg 42%
    13:00 +4°C° 0 mm 3 m/s 766 mmHg 40%
    14:00 +4°C° 0 mm 4 m/s 766 mmHg 39%
    15:00 +3°C° 0 mm 3 m/s 766 mmHg 41%
    16:00 +2°C° 0 mm 3 m/s 766 mmHg 44%
    17:00 +1°C° 0 mm 3 m/s 766 mmHg 47%
    18:00 +1°C° 0 mm 3 m/s 766 mmHg 47%
    19:00 0°C° 0 mm 3 m/s 766 mmHg 48%
    20:00 0°C° 0 mm 3 m/s 767 mmHg 48%
    21:00 +1°C° 0 mm 2 m/s 767 mmHg 47%
    22:00 +1°C° 0 mm 2 m/s 767 mmHg 46%
    23:00 +1°C° 0 mm 2 m/s 767 mmHg 45%

    22 Novembre, Jeudi

    Heure Température Précipitation Vent Pression Humidité
    00:00 +1°C° 0 mm 2 m/s 767 mmHg 45%
    01:00 +1°C° 0 mm 1 m/s 767 mmHg 44%
    02:00 +1°C° 0 mm 1 m/s 767 mmHg 44%
    03:00 +2°C° 0 mm 1 m/s 766 mmHg 45%
    04:00 +2°C° 0 mm 1 m/s 766 mmHg 45%
    05:00 +1°C° 0 mm 2 m/s 765 mmHg 45%
    06:00 +2°C° 0 mm 2 m/s 765 mmHg 47%
    07:00 +3°C° 0 mm 2 m/s 766 mmHg 48%
    08:00 +3°C° 0 mm 3 m/s 766 mmHg 49%
    09:00 +3°C° 0 mm 4 m/s 766 mmHg 45%
    10:00 +3°C° 0 mm 6 m/s 766 mmHg 41%
    11:00 +4°C° 0 mm 8 m/s 766 mmHg 36%
    12:00 +2°C° 0 mm 8 m/s 765 mmHg 36%
    13:00 +2°C° 0 mm 7 m/s 765 mmHg 36%
    14:00 +2°C° 0 mm 7 m/s 765 mmHg 36%
    15:00 -1°C° 0 mm 6 m/s 766 mmHg 40%
    16:00 -2°C° 0 mm 6 m/s 766 mmHg 43%
    17:00 -2°C° 0 mm 5 m/s 766 mmHg 46%
    18:00 -2°C° 0 mm 4 m/s 767 mmHg 46%
    19:00 -3°C° 0 mm 4 m/s 767 mmHg 45%
    20:00 -2°C° 0 mm 3 m/s 767 mmHg 45%
    21:00 -2°C° 0 mm 3 m/s 767 mmHg 44%
    22:00 -2°C° 0 mm 3 m/s 767 mmHg 43%
    23:00 -3°C° 0 mm 2 m/s 767 mmHg 42%

    23 Novembre, Vendredi

    Heure Température Précipitation Vent Pression Humidité
    00:00 -3°C° 0 mm 2 m/s 767 mmHg 41%
    01:00 -3°C° 0 mm 2 m/s 767 mmHg 41%
    02:00 -1°C° 0 mm 1 m/s 767 mmHg 41%
    03:00 -1°C° 0 mm 1 m/s 767 mmHg 40%
    04:00 -1°C° 0 mm 1 m/s 767 mmHg 40%
    05:00 -2°C° 0 mm 0 m/s 767 mmHg 40%
    06:00 -1°C° 0 mm 1 m/s 767 mmHg 38%
    07:00 0°C° 0 mm 1 m/s 767 mmHg 36%
    08:00 0°C° 0 mm 1 m/s 767 mmHg 34%
    09:00 +2°C° 0 mm 1 m/s 767 mmHg 31%
    10:00 +3°C° 0 mm 1 m/s 767 mmHg 29%
    11:00 +4°C° 0 mm 1 m/s 766 mmHg 26%
    12:00 +4°C° 0 mm 2 m/s 766 mmHg 29%
    13:00 +4°C° 0 mm 2 m/s 765 mmHg 32%
    14:00 +5°C° 0 mm 2 m/s 764 mmHg 34%
    15:00 +4°C° 0 mm 2 m/s 764 mmHg 40%
    16:00 +3°C° 0 mm 2 m/s 764 mmHg 47%
    17:00 +2°C° 0 mm 2 m/s 764 mmHg 53%
    18:00 +2°C° 0 mm 3 m/s 764 mmHg 56%
    19:00 +2°C° 0 mm 3 m/s 764 mmHg 59%
    20:00 +2°C° 0 mm 3 m/s 763 mmHg 61%
    21:00 +2°C° 0 mm 3 m/s 763 mmHg 65%
    22:00 +2°C° 0 mm 3 m/s 762 mmHg 69%
    23:00 +3°C° 0 mm 3 m/s 762 mmHg 72%
    Voir plus